This demonstration page uses our WeatherBlox Daily Observations layout. Learn more.

Left ArrowRight Arrow

44.89941, -97.11507

Hourly Observations for August 19, 2022

Temp ( °F °C ) Dew Point ( °F °C ) Humidity (%) Winds ( mph kmh ) Pressure ( in mb ) Visibility ( mi km ) Precip ( " mm )
12:53 am 00:53 Clear 65 18.3 62 16.7 90 90 WNW 8 13 29.84 1010 10 16 0.00 0.00
1:53 am 01:53 Clear 64 17.8 61 16.1 90 90 WNW 12 19 29.83 1010 10 16 0.00 0.00
2:48 am 02:48 Mostly Clear 64 18 63 17 94 94 WNW 10 17 29.81 1009 10 16 0.00 0.00
2:53 am 02:53 Clear 64 17.8 62 16.7 93 93 WNW 10 17 29.82 1010 10 16 0.00 0.00
3:53 am 03:53 Clear 63 17.2 60 15.6 90 90 WNW 9 15 29.82 1010 10 16 0.00 0.00
4:53 am 04:53 Mostly Cloudy 63 17.2 60 15.6 90 90 WNW 8 13 29.82 1010 10 16 0.00 0.00
5:43 am 05:43 Cloudy 62 16.7 59 15 90 90 WNW 13 20 29.79 1009 10 16 0.00 0.00
5:53 am 05:53 Mostly Cloudy 61 16.1 59 15 93 93 WNW 9 15 29.80 1009 10 16 0.00 0.00
5:58 am 05:58 Partly Cloudy 61 16.1 59 15 93 93 W 12 19 29.80 1009 10 16 0.00 0.00
6:09 am 06:09 Mostly Cloudy 61 16.1 59 15 93 93 WNW 10 17 29.81 1009 10 16 0.00 0.00
6:19 am 06:19 Mostly Cloudy 61 16.1 58 14.4 90 90 WNW 14 22 29.80 1009 10 16 0.00 0.00
6:53 am 06:53 Cloudy 61 16.1 59 15 93 93 WNW 14 22 29.81 1010 10 16 0.00 0.00
7:53 am 07:53 Cloudy 62 16.7 60 15.6 93 93 WNW 12 19 29.80 1009 10 16 0.01 0.13
8:19 am 08:19 Cloudy 62 16.7 60 15.6 93 93 WNW 15 24 29.79 1009 10 16 0.00 0.00
8:26 am 08:26 Cloudy with Light Rain 62 16.7 60 15.6 93 93 WNW 13 20 29.79 1009 10 16 0.01 0.13
8:53 am 08:53 Cloudy with Light Rain 62 16.7 61 16.1 96 96 WNW 15 24 29.81 1009 10 16 0.02 0.51
9:21 am 09:21 Cloudy with Light Rain 62 16.7 61 16.1 96 96 W 14 22 29.78 1008 8 13 0.02 0.51
9:38 am 09:38 Cloudy with Rain 62 16.7 61 16.1 96 96 WNW 15 24 29.78 1008 5 8 0.04 1.02
9:53 am 09:53 Cloudy with Rain 62 16.7 61 16.1 96 96 W 16 26 29.78 1009 3 5 0.08 2.03
10:25 am 10:25 Cloudy with Heavy Rain 63 17.2 62 16.7 97 97 WNW 17 28 29.76 1008 2 3 0.10 2.54
10:45 am 10:45 Cloudy with Heavy Rain 63 17.2 62 16.7 97 97 NW 21 33 29.75 1008 1 2 0.24 6.10
10:53 am 10:53 Cloudy with Heavy Rain 63 17.2 62 16.7 97 97 NW 20 31 29.77 1008 2 2 0.31 7.87
11:01 am 11:01 Cloudy with Light Rain 63 17.2 62 16.7 97 97 NW 23 37 29.75 1008 3 5 0.01 0.25
11:18 am 11:18 Cloudy with Heavy Rain 63 17.2 62 16.7 97 97 NW 20 31 29.75 1008 2 3 0.07 1.78
11:41 am 11:41 Cloudy with Light Rain 64 17.8 62 16.7 93 93 NW 25 41 29.76 1008 4 6 0.16 4.06
11:53 am 11:53 Cloudy with Light Rain 64 17.8 63 17.2 96 96 NW 20 31 29.78 1009 9 14 0.16 4.06
12:20 pm 12:20 Cloudy 66 18.9 64 17.8 93 93 NNW 20 31 29.75 1007 10 16 0.01 0.13
12:24 pm 12:24 Cloudy 66 18.9 64 17.8 93 93 NNW 21 33 29.75 1007 10 16 0.01 0.13
12:36 pm 12:36 Cloudy 65 18.3 63 17.2 93 93 NNW 18 30 29.76 1008 10 16 0.01 0.13
12:53 pm 12:53 Cloudy 66 18.9 63 17.2 90 90 NNW 23 37 29.78 1009 10 16 0.01 0.13
1:02 pm 13:02 Cloudy 67 19.4 63 17.2 87 87 NNW 23 37 29.75 1007 10 16 0.00 0.00
1:38 pm 13:38 Cloudy 69 20.6 63 17.2 81 81 NNW 26 43 29.75 1008 10 16 0.00 0.00
1:53 pm 13:53 Mostly Cloudy 68 20 63 17.2 84 84 NNW 20 31 29.79 1009 10 16 0.00 0.00
2:11 pm 14:11 Mostly Cloudy 68 20 63 17.2 84 84 NNW 24 39 29.76 1008 10 16 0.00 0.00
2:53 pm 14:53 Cloudy with Light Rain 67 19.4 62 16.7 84 84 NNW 21 33 29.79 1009 10 16 0.01 0.13
3:22 pm 15:22 Cloudy 67 19.4 62 16.7 84 84 NNW 17 28 29.75 1007 10 16 0.01 0.25
3:49 pm 15:49 Cloudy with Heavy Rain 63 17 61 16 94 94 NNE 20 31 29.78 1009 1 2 0.21 5.33
4:01 pm 16:01 Cloudy with Light Rain 62 16.7 61 16.1 96 96 N 13 20 29.79 1009 2 3 0.03 0.76
4:04 pm 16:04 Cloudy with Light Rain 62 16.7 61 16.1 96 96 N 8 13 29.79 1009 3 5 0.03 0.76
4:27 pm 16:27 Cloudy with Rain 65 18.3 64 17.8 97 97 NNW 13 20 29.78 1008 5 8 0.07 1.78
4:53 pm 16:53 Cloudy with Light Rain 64 17.8 63 17.2 96 96 N 17 28 29.81 1009 10 16 0.07 1.78
5:53 pm 17:53 Cloudy 68 20 65 18.3 90 90 NNW 14 22 29.82 1010 10 16 0.01 0.13
6:02 pm 18:02 Cloudy with Light Rain 67 19.4 64 17.8 90 90 NNW 16 26 29.78 1008 10 16 0.01 0.13
6:09 pm 18:09 Cloudy 68 20 65 18.3 90 90 NNW 15 24 29.77 1008 10 16 0.01 0.13
6:16 pm 18:16 Cloudy 68 20 65 18.3 90 90 N 17 28 29.77 1008 10 16 0.01 0.13
6:43 pm 18:43 Partly Cloudy 66 18.9 63 17.2 90 90 N 13 20 29.79 1009 10 16 0.01 0.13
6:53 pm 18:53 Mostly Sunny 65 18.3 62 16.7 90 90 N 14 22 29.83 1010 10 16 0.01 0.13
7:53 pm 19:53 Partly Cloudy 64 17.8 62 16.7 93 93 N 10 17 29.85 1011 10 16 0.00 0.00
8:53 pm 20:53 Clear 62 16.7 61 16.1 96 96 N 5 7 29.87 1011 10 16 0.00 0.00
9:53 pm 21:53 Clear 61 16.1 60 15.6 97 97 N 6 9 29.90 1013 10 16 0.00 0.00
10:53 pm 22:53 Clear 61 16.1 60 15.6 97 97 N 7 11 29.91 1013 10 16 0.00 0.00
11:53 pm 23:53 Clear 60 15.6 60 15.6 100 100 N 7 11 29.92 1013 10 16 0.00 0.00

Powered by AerisWeather